星链-31324 (STARLINK-31324 )

导读

STARLINK-31324是美国SpaceX星链互联网星座的一员,于2024年2月15日发射入轨,属于低轨通信卫星。星链星座通过大规模组网,为全球提供高速宽带互联网服务,尤其覆盖偏远地区。这颗卫星加入后,进一步扩充了星链规模,提升星座覆盖密度与服务容量,延续了SpaceX推进星链部署的节奏,也推动全球低轨卫星互联网发展。

基本信息
目录编号:
58976
目录名称:
STARLINK-31324
国际标识:
2024-031M
轨道中心:
EARTH
卫星名称:
星链-31324
卫星全名:
星链-31324 (STARLINK-31324 )
卫星状态:
在轨 (已飞行939 天)
发射日期:
2024-02-15 UTC
国别 :
美国 (US)
星等 :
--
该卫星已列入 空间交会检测服务 Space Conjunction Data Service (SCDS) ,当前飞行风险评估等级: 高风险
轨道信息
数据来源 国际轨道数据 AOE轨道数据
星历时间 2026-09-11T11:49:35+0800
15小时前
查看轨道信息
2026-09-09T23:00:00+0800
2天前
查看轨道信息
半长轴 6840.858km 6840.854km
偏心率 0.0001986 0.0001625
轨道倾角 53.159° 53.156°
近地点辐角 86.266° 81.090°
升交点赤经 153.490° 160.662°
平近点角 273.857° 78.408°
近地点 461.362km 461.605km
远地点 464.08km 463.829km
周期 93.848分钟 93.848分钟
每日圈数 15.343943 15.343956
详细信息
固有亮度:
5
最大亮度:
0.3
卫星平台:
Starlink v2.0 mini
覆盖范围:
全球
运营商:
太空探索技术公司
运营商所在国:
美国
制造商(研发单位):
太空探索技术公司
制造商所在国:
美国
使用方式:
暂无
卫星简介
星链(Starlink)计划是由太空探索技术公司(SpaceX)提出的一个巨型低轨卫星互联网星座项目,计划在2019年至2024年间在太空搭建由约1.2万颗卫星组成的“星链”网络,其中1584颗将部署在地球上空550千米处的近地轨道,并从2020年开始工作。该卫星仍在工作。
2D轨道图
3D轨道图
轨道高度分析图
轨道倾角分析图
轨道综合分析图
查看轨道综合分析图
交会数据列表
事件ID 空间交会对象 最接近时刻(TCA) 交会距离 交会风险概率(CRP) 交会风险指数(CRI) 操作
CDM_260913-171105-897606-920121
2026-09-13T
17:11:19+0000
0.380 km
远距离
7.304974E-5 中风险 0.72
CDM_260913-170505-897606-295821
2026-09-13T
17:05:15+0000
1.083 km
极远距离
1.196541E-5 中风险 0.57
CDM_260914-031405-897606-295821
2026-09-14T
03:14:53+0000
1.261 km
极远距离
7.079134E-6 低风险 0.52
CDM_260913-153105-897606-295821
2026-09-13T
15:31:27+0000
1.532 km
极远距离
3.738577E-6 低风险 0.46
CDM_260913-162405-897606-920121
2026-09-13T
16:24:25+0000
0.989 km
远距离
3.62244E-6 低风险 0.46
CDM_260911-233505-082305-897621
2026-09-11T
23:35:08+0000
1.981 km
极远距离
2.27141E-6 低风险 0.42
CDM_260914-014105-897606-295821
2026-09-14T
01:41:06+0000
2.048 km
极远距离
1.67182E-6 低风险 0.39
CDM_260913-175805-897606-920121
2026-09-13T
17:58:12+0000
2.486 km
极远距离
3.450991E-7 极低风险 0.26
CDM_260913-184505-897606-920121
2026-09-13T
18:45:06+0000
2.592 km
极远距离
3.26878E-7 极低风险 0.25
CDM_260913-153705-897606-920121
2026-09-13T
15:37:31+0000
2.854 km
极远距离
2.937051E-7 极低风险 0.24
与全量物体交会距离演化趋势
与全量物体交会风险概率演化趋势